Location: Francueil
(47.3128°N, 1.0840°E)
Time: 16:54:28
(UTC+00:00)

Daily predictions for brighter satellites

Satellite Brightness Start Highest point End
(mag) Time Altitude Azimuth Time Altitude Azimuth Time Altitude Azimuth
Thor Agena Rocket 4.1 17:38:20 10° S 17:43:23 67° WSW 17:48:32 10° NNW
NOSS 3-4 (A) 4.2 17:38:40 10° NNW 17:44:53 44° NE 17:52:08 10° ESE
IRS-1C 4.2 17:39:45 10° SSE 17:45:04 88° WSW 17:50:26 10° NNW
NOSS 3-4 (C) 4.2 17:38:56 10° NNW 17:45:10 43° NE 17:52:25 10° ESE
Cosmos 1725 Rocket 4.1 17:40:07 10° N 17:46:24 86° W 17:52:41 10° S
Cosmos 2151 Rocket 3.6 17:45:34 10° N 17:50:06 75° E 17:54:35 10° SSE
Meteor 1-11 4.2 17:45:44 10° S 17:51:20 77° E 17:57:06 10° NNE
SL-08 R/B 4.5 17:46:34 10° N 17:52:46 85° E 17:58:51 10° S
Cosmos 1607 4.1 17:48:32 10° SW 17:54:40 80° NW 18:00:54 10° NE
Radarsat Rocket 4.2 17:49:13 10° SE 17:54:51 49° ENE 18:00:56 10° N
Cosmos 1455 Rocket 3.8 17:53:50 10° N 17:57:38 30° ENE 18:01:25 10° SE
Cosmos 44 Rocket 4.4 17:54:20 10° S 17:58:25 27° ESE 18:02:37 10° ENE
YAOGAN 1 2.6 17:55:00 10° SSE 17:59:08 54° ENE 18:03:17 10° N
Cosmos 1975 Rocket 4.5 17:56:27 10° SE 17:59:17 17° E 18:02:07 10° NE
PSLV R/B 4.0 17:56:16 10° SE 17:59:59 34° ENE 18:03:43 10° N
ATLAS 2AS CENTAUR R/B 4.3 17:54:38 10° WNW 18:00:15 26° NNW 18:05:48 10° NNE
Cosmos 2228 4.3 17:57:25 10° NNE 18:00:26 19° ENE 18:03:27 10° ESE
Cosmos 2297 Rocket 2.5 17:55:46 10° S 18:01:09 48° ESE 18:06:34 10° NE
COSMO-SKYMED 1 3.0 17:57:25 10° NNE 18:01:15 37° E 18:05:04 10° SSE
Cosmos 1782 4.4 18:00:35 10° NE 18:02:12 12° ENE 18:03:12 11° E
Lacrosse 5 rocket 2.6 17:59:46 10° W 18:02:45 26° NNW 18:05:50 10° NE
SPOT 1/Viking Rocket 3.7 18:00:58 10° S 18:06:04 79° WSW 18:11:14 10° NNW
Cosmos 2061 Rocket 4.0 18:01:40 10° N 18:08:05 84° E 18:14:23 10° S
Aureole 3 Rocket 2.7 18:04:21 10° N 18:08:08 46° ENE 18:11:13 10° SSE
CZ-2D R/B 3.4 18:05:07 10° SSE 18:08:57 57° ENE 18:12:55 10° N
Meteor 2-1 Rocket 4.3 18:04:38 10° N 18:10:29 86° E 18:16:25 10° S
CZ-4C R/B 2.2 18:08:12 10° SW 18:12:25 62° NW 18:17:51 10° NE
Okean 1 Rocket 3.0 18:08:41 10° N 18:13:07 84° E 18:17:28 10° S
Cosmos 1356 Rocket 4.0 18:09:37 10° NNW 18:13:30 57° W 18:17:24 10° S
SL-16 R/B 4.3 18:08:10 10° N 18:13:31 32° WNW 18:18:52 10° WSW
Okean 2 Rocket 3.3 18:13:58 10° NNW 18:18:22 74° W 18:22:42 10° S
Cosmos 2344 4.4 18:12:09 10° SSE 18:18:35 27° ESE 18:23:43 12° ENE
Cosmos 2221 Rocket 3.5 18:14:52 10° S 18:19:20 83° E 18:23:52 10° N
Cosmos 1602 4.4 18:17:47 10° SE 18:19:21 18° ESE 18:19:21 18° ESE
USA 267 3.6 18:15:34 10° NE 18:22:00 61° NNW 18:28:24 10° WSW
SJ-6B 3.4 18:20:57 10° SE 18:23:53 27° ENE 18:26:51 10° N
Cosmos 2263 Rocket 3.3 18:25:36 10° SSE 18:29:47 22° E 18:31:44 18° ENE
Cosmos 1025 Rocket 3.6 18:25:42 10° SSW 18:29:56 60° WNW 18:34:15 10° N
Cosmos 1980 3.7 18:24:57 10° NNW 18:30:39 90° NW 18:36:19 10° SSE
Sich 1 Rocket 4.1 18:28:50 10° NNW 18:33:22 65° W 18:37:51 10° S
COSMOS 2428 4.1 18:28:28 10° NW 18:33:49 41° WSW 18:39:07 10° S
Meteor 1-31 Rocket 4.3 18:36:36 16° NE 18:36:36 16° NE 18:37:53 10° NNE
Cosmos 2237 Rocket 2.2 18:30:14 10° NNW 18:35:57 89° WSW 18:41:39 10° SSE
SKYMED 2 4.4 18:33:39 10° N 18:37:54 54° WNW 18:42:08 10° SSW
Meteor 1-27 4.2 18:32:47 10° N 18:38:36 74° ENE 18:44:25 10° SSE
SJ-7 4.3 18:36:40 10° S 18:40:21 74° WSW 18:44:02 10° NNW
Resurs 1-3 4.4 18:36:30 10° S 18:40:42 53° W 18:44:56 10° NNW
SeaSat 1 3.8 18:37:07 10° S 18:41:43 41° WSW 18:46:20 10° NW
Cosmos 1125 Rocket 4.3 18:37:02 10° NNW 18:42:06 54° WSW 18:47:09 10° S
Cosmos 1570 Rocket 3.9 18:37:11 10° SSW 18:42:28 80° ESE 18:47:44 10° NNE
Resurs 01 Rocket 1.5 18:38:46 10° SSE 18:43:08 72° ENE 18:47:32 10° N
SPOT 5 3.6 18:45:52 25° E 18:47:37 31° ENE 18:52:04 10° N
NOSS 3-3 (C) 4.3 18:44:07 10° WSW 18:49:19 56° NW 18:55:36 10° NE
DMSP B5D1-3 4.4 18:48:36 10° NNE 18:53:43 75° ESE 18:58:49 10° S
Tiangong -0.6 18:52:46 10° SW 18:55:25 24° S 18:55:41 24° SSE
NOAA 6 4.4 18:53:55 10° S 18:59:01 67° WSW 19:04:12 10° NNW
Cosmos 2227 Rocket 2.2 18:54:52 10° S 19:00:24 60° ESE 19:05:16 14° NE
SL-16 R/B 2.4 18:56:20 10° NNW 19:01:49 47° NE 19:03:58 32° ESE
Cosmos 773 Rocket 4.0 18:58:04 10° SSW 19:03:21 89° WNW 19:08:40 10° NNE
Cosmos 1346 Rocket 3.0 19:00:04 10° S 19:02:49 42° SE 19:02:49 42° SE
Cosmos 2208 Rocket 3.9 18:58:20 10° SSW 19:03:34 86° ESE 19:08:55 10° NNE
CARTOSAT-1 4.3 18:59:53 10° S 19:03:58 51° W 19:08:05 10° NNW
Tsikada Rocket 4.4 19:01:56 10° SSE 19:07:24 35° E 19:12:54 10° NNE
CZ-4 R/B 3.2 19:17:56 18° N 19:17:56 18° N 19:19:04 10° N
BREEZE-M DEB (TANK) 4.5 19:14:19 10° WNW 19:18:26 66° SSW 19:26:43 21° SE
ARIANE 6 FM1 Upper Stage 3.3 19:17:57 10° NNW 19:21:05 39° NNE 19:21:05 39° NNE
Gbstr 26 Del rocket 4.5 19:17:45 10° SSW 19:24:21 51° SE 19:26:27 40° E
CZ-4B R/B 3.9 19:26:09 34° NE 19:26:09 34° NE 19:29:57 10° N
Terra 3.6 19:30:49 18° NNE 19:30:49 18° NNE 19:32:18 10° N
Cosmos 1816 Rocket 4.4 19:23:15 10° S 19:29:25 89° WNW 19:35:41 10° N
Helios 1A Rocket 4.1 19:31:19 26° SSW 19:31:19 26° SSW 19:32:53 10° SSW
CZ-4B DEB 4.2 19:29:06 53° E 19:29:46 57° ENE 19:35:08 10° N
Cosmos 2150 Rocket 4.5 19:24:55 10° NNW 19:29:59 59° WSW 19:34:58 10° S
Cosmos 1544 Rocket 3.4 19:26:02 10° N 19:30:03 71° NNE 19:30:03 71° NNE
Atlas Centaur 2 4.5 19:25:56 10° SW 19:30:35 17° SSW 19:33:53 13° SSE
CSL-04 Debris 4.0 19:30:41 42° SE 19:32:33 73° ENE 19:37:59 10° N
BREEZE-M (TANK) 4.0 19:29:45 10° W 19:32:53 45° SSW 19:36:14 26° SSE
Cosmos 2034 Rocket 3.9 19:29:16 10° N 19:35:28 87° E 19:41:41 10° S
NOSS 3-4 (A) 4.3 19:29:21 10° NW 19:36:05 59° WSW 19:43:28 12° SSE
NOSS 3-4 (C) 4.3 19:29:38 10° NW 19:36:23 60° WSW 19:43:38 13° SSE
Cosmos 1975 Rocket 3.9 19:32:24 10° SSW 19:36:36 49° WNW 19:40:49 10° N
CSL-04 Rocket 3.4 19:35:10 39° SSE 19:37:12 84° ENE 19:42:30 10° NNW
Cosmos 1782 3.3 19:33:46 10° NNW 19:37:15 50° W 19:37:19 50° W
Cosmos 2228 4.1 19:33:39 10° NNW 19:37:38 43° W 19:41:36 10° SSW
TSX-5 4.4 19:32:47 10° NNW 19:37:23 58° NNE 19:37:23 58° NNE
Cosmos 44 Rocket 4.0 19:34:42 10° SW 19:39:32 53° NW 19:41:48 30° NNE
Lacrosse 5 rocket 3.3 19:38:03 10° NW 19:39:50 17° NNW 19:39:50 17° NNW
MOS 1 4.5 19:41:21 51° NE 19:41:21 51° NE 19:46:19 10° N
Cosmos 1634 Rocket 4.0 19:36:36 10° N 19:42:52 59° ENE 19:43:02 58° E
Cosmos 2297 Rocket 3.8 19:40:17 10° WSW 19:45:22 33° NW 19:50:28 10° NNE
Cosmos 1943 3.9 19:44:16 10° NNW 19:48:32 38° NNE 19:48:32 38° NNE
ATLAS 2AS CENTAUR R/B 4.3 19:48:40 10° NW 19:53:35 20° N 19:55:21 18° NNE
BREEZE-M DEB (TANK) 3.7 19:36:45 10° W 19:55:18 83° S 19:56:30 63° ESE
ERS-1 Rocket 4.2 20:02:08 31° N 20:02:08 31° N 20:04:46 10° N
Cosmos 2219 4.4 19:54:23 10° SSW 19:57:13 30° S 19:57:13 30° S
CZ-4C R/B 4.1 19:58:09 10° WNW 20:01:55 21° NNW 20:04:23 16° NNE
BREEZE-M DEB (TANK) 4.0 19:57:37 10° SW 20:02:10 69° SE 20:04:47 50° E
USA 267 4.2 20:02:29 32° NNE 20:04:23 39° N 20:10:20 10° WNW
Feng Yun 1-1 Rocket 4.3 20:09:36 78° SW 20:09:48 79° WSW 20:15:44 10° NNW
Cosmos 2263 Rocket 2.4 20:07:30 10° SW 20:13:08 66° WNW 20:13:30 64° NW
PAYLOAD B 4.5 20:18:17 66° WNW 20:18:17 66° WNW 20:23:23 10° NNW
SPOT 5 4.2 20:24:54 36° WSW 20:25:26 37° W 20:30:08 10° NNW
Cosmos 2344 3.6 20:24:35 10° SW 20:32:16 68° NW 20:33:48 55° N
Cosmos 2227 Rocket 4.0 20:40:03 10° WSW 20:44:50 27° NW 20:47:09 21° N
SL-16 R/B 3.7 20:40:47 10° NW 20:45:41 31° WSW 20:45:53 31° WSW
